,,Stat6,,Stat2,,Stat8,,Stat9,,Stat10,,Wind1,,Wind1,
time,status,PA1M_AVG,status,PR1M_SUM,status,RH1M_AVG,status,SR1M_AVG,status,TA1M_AVG,status,W1dAve1m,status,W1sAve1m,
2004-02-08, 00:00:00,VALID,920.912,VALID,0,VALID,96.6661,VALID,0.0169808,VALID,19.536,VALID,120,VALID,0.744665,
2004-02-08, 00:01:00,VALID,920.905,VALID,0,VALID,96.5491,VALID,0,VALID,19.4973,VALID,124,VALID,0.838224,
2004-02-08, 00:02:00,VALID,920.908,VALID,0,VALID,96.9497,VALID,-0.0339617,VALID,19.51,VALID,117,VALID,0.842882,
2004-02-08, 00:03:00,VALID,920.9,VALID,0,VALID,96.7755,VALID,-0.0169808,VALID,19.5035,VALID,123,VALID,0.718023,
2004-02-08, 00:04:00,VALID,920.874,VALID,0,VALID,96.7856,VALID,0,VALID,19.4844,VALID,112,VALID,0.661458,
2004-02-08, 00:05:00,VALID,920.862,VALID,0,VALID,97.1302,VALID,0,VALID,19.4747,VALID,95,VALID,0.777249,
2004-02-08, 00:06:00,VALID,920.842,VALID,0,VALID,97.2116,VALID,-0.0169808,VALID,19.4903,VALID,93,VALID,0.74891,
2004-02-08, 00:07:00,VALID,920.837,VALID,0,VALID,97.1786,VALID,0,VALID,19.5067,VALID,76,VALID,0.983285,
2004-02-08, 00:08:00,VALID,920.825,VALID,0,VALID,97.3172,VALID,0,VALID,19.5321,VALID,76,VALID,0.632631,
2004-02-08, 00:09:00,VALID,920.797,VALID,0,VALID,97.293,VALID,-0.0339617,VALID,19.5807,VALID,90,VALID,0.656613,
2004-02-08, 00:10:00,VALID,920.782,VALID,0,VALID,96.998,VALID,0,VALID,19.6329,VALID,95,VALID,0.77934,
2004-02-08, 00:11:00,VALID,920.763,VALID,0,VALID,96.661,VALID,0,VALID,19.6679,VALID,106,VALID,0.937137,
2004-02-08, 00:12:00,VALID,920.736,VALID,0,VALID,96.319,VALID,0.0169808,VALID,19.7007,VALID,91,VALID,0.724219,
2004-02-08, 00:13:00,VALID,920.714,VALID,0,VALID,96.2249,VALID,-0.0169808,VALID,19.7427,VALID,84,VALID,0.689215,
2004-02-08, 00:14:00,VALID,920.704,VALID,0,VALID,95.9464,VALID,-0.0169808,VALID,19.7452,VALID,78,VALID,0.934152,
2004-02-08, 00:15:00,VALID,920.689,VALID,0,VALID,96.4321,VALID,-0.0339617,VALID,19.8105,VALID,103,VALID,0.975781,
2004-02-08, 00:16:00,VALID,920.677,VALID,0,VALID,95.9489,VALID,-0.0169808,VALID,19.8806,VALID,108,VALID,0.690225,
2004-02-08, 00:17:00,VALID,920.662,VALID,0,VALID,95.3106,VALID,-0.0169808,VALID,19.9169,VALID,72,VALID,0.4641,
2004-02-08, 00:18:00,VALID,920.655,VALID,0,VALID,95.2597,VALID,-0.0509425,VALID,19.9228,VALID,108,VALID,0.755087,
2004-02-08, 00:19:00,VALID,920.651,VALID,0,VALID,95.2839,VALID,-0.0169808,VALID,19.9459,VALID,96,VALID,1.11328,
2004-02-08, 00:20:00,VALID,920.639,VALID,0,VALID,95.0385,VALID,-0.0679233,VALID,19.9844,VALID,100,VALID,0.704687,
2004-02-08, 00:21:00,VALID,920.63,VALID,0,VALID,94.6888,VALID,-0.0679233,VALID,19.9906,VALID,99,VALID,0.853693,
2004-02-08, 00:22:00,VALID,920.609,VALID,0,VALID,94.4662,VALID,-0.0339617,VALID,19.9742,VALID,111,VALID,0.523983,
2004-02-08, 00:23:00,VALID,920.583,VALID,0,VALID,94.5145,VALID,-0.0339617,VALID,19.9685,VALID,143,VALID,0.976207,
2004-02-08, 00:24:00,VALID,920.587,VALID,0,VALID,94.2348,VALID,0,VALID,19.8967,VALID,96,VALID,0.93457,
2004-02-08, 00:25:00,VALID,920.583,VALID,0,VALID,94.8579,VALID,-0.0169808,VALID,19.8575,VALID,111,VALID,0.984375,
2004-02-08, 00:26:00,VALID,920.578,VALID,0,VALID,94.8884,VALID,0,VALID,19.8644,VALID,97,VALID,0.691883,
2004-02-08, 00:27:00,VALID,920.566,VALID,0,VALID,95.088,VALID,-0.0169808,VALID,19.8483,VALID,113,VALID,0.93407,
2004-02-08, 00:28:00,VALID,920.554,VALID,0,VALID,95.2254,VALID,-0.0339617,VALID,19.8776,VALID,88,VALID,0.954861,
2004-02-08, 00:29:00,VALID,920.527,VALID,0,VALID,95.1287,VALID,-0.0339617,VALID,19.9069,VALID,69,VALID,0.720486,
2004-02-08, 00:30:00,VALID,920.496,VALID,0,VALID,95.0156,VALID,-0.0339617,VALID,19.9288,VALID,98,VALID,0.671317,
2004-02-08, 00:31:00,VALID,920.48,VALID,0,VALID,94.8388,VALID,0.0169808,VALID,19.9191,VALID,102,VALID,0.831597,
2004-02-08, 00:32:00,VALID,920.464,VALID,0,VALID,94.8236,VALID,-0.0169808,VALID,19.9002,VALID,115,VALID,0.870916,
2004-02-08, 00:33:00,VALID,920.472,VALID,0,VALID,95.1147,VALID,-0.0169808,VALID,19.8739,VALID,126,VALID,1.12734,
2004-02-08, 00:34:00,VALID,920.451,VALID,0,VALID,95.0702,VALID,-0.0169808,VALID,19.8615,VALID,95,VALID,1.02617,
2004-02-08, 00:35:00,VALID,920.442,VALID,0,VALID,95.1847,VALID,-0.0169808,VALID,19.8647,VALID,95,VALID,0.920422,
2004-02-08, 00:36:00,VALID,920.418,VALID,0,VALID,95.1618,VALID,0,VALID,19.8644,VALID,107,VALID,1.03976,
2004-02-08, 00:37:00,VALID,920.39,VALID,0,VALID,95.0613,VALID,0,VALID,19.8647,VALID,112,VALID,1.27006,
2004-02-08, 00:38:00,VALID,920.366,VALID,0,VALID,94.9634,VALID,-0.0339617,VALID,19.8453,VALID,116,VALID,1.31068,
2004-02-08, 00:39:00,VALID,920.332,VALID,0,VALID,95.2343,VALID,-0.0679233,VALID,19.8257,VALID,136,VALID,1.48496,
2004-02-08, 00:40:00,VALID,920.322,VALID,0,VALID,94.9202,VALID,-0.0509425,VALID,19.891,VALID,132,VALID,1.39132,
2004-02-08, 00:41:00,VALID,920.317,VALID,0,VALID,94.2958,VALID,-0.0169808,VALID,19.9094,VALID,91,VALID,1.04353,
2004-02-08, 00:42:00,VALID,920.297,VALID,0,VALID,94.6239,VALID,-0.0169808,VALID,19.8935,VALID,97,VALID,1.24014,
2004-02-08, 00:43:00,VALID,920.281,VALID,0,VALID,94.6544,VALID,-0.0169808,VALID,19.9164,VALID,100,VALID,1.43047,
2004-02-08, 00:44:00,VALID,920.256,VALID,0,VALID,94.6176,VALID,0,VALID,19.9449,VALID,101,VALID,1.43438,
2004-02-08, 00:45:00,VALID,920.239,VALID,0,VALID,94.306,VALID,-0.0339617,VALID,19.9966,VALID,108,VALID,1.31566,
2004-02-08, 00:46:00,VALID,920.234,VALID,0,VALID,94.1254,VALID,-0.0339617,VALID,20.0495,VALID,115,VALID,1.67076,
2004-02-08, 00:47:00,VALID,920.222,VALID,0,VALID,94.058,VALID,0,VALID,20.0364,VALID,101,VALID,1.43572,
2004-02-08, 00:48:00,VALID,920.185,VALID,0,VALID,94.2755,VALID,0,VALID,20.0127,VALID,98,VALID,1.00986,
2004-02-08, 00:49:00,VALID,920.17,VALID,0,VALID,94.2806,VALID,-0.0339617,VALID,20.0003,VALID,121,VALID,1.31715,
2004-02-08, 00:50:00,VALID,920.154,VALID,0,VALID,94.1496,VALID,0,VALID,19.9872,VALID,93,VALID,1.15346,
2004-02-08, 00:51:00,VALID,920.143,VALID,0,VALID,94.2729,VALID,-0.0339617,VALID,19.9742,VALID,99,VALID,1.06211,
2004-02-08, 00:52:00,VALID,920.13,VALID,0,VALID,94.2806,VALID,-0.0509425,VALID,19.9613,VALID,117,VALID,1.52865,
2004-02-08, 00:53:00,VALID,920.111,VALID,0,VALID,94.4472,VALID,-0.0169808,VALID,19.9479,VALID,129,VALID,1.62277,
2004-02-08, 00:54:00,VALID,920.103,VALID,0,VALID,94.2284,VALID,0,VALID,19.9834,VALID,124,VALID,1.53553,
2004-02-08, 00:55:00,VALID,920.098,VALID,0,VALID,93.997,VALID,0,VALID,20.0289,VALID,131,VALID,1.93695,
2004-02-08, 00:56:00,VALID,920.071,VALID,0,VALID,93.5914,VALID,0,VALID,20.0572,VALID,114,VALID,1.4185,
2004-02-08, 00:57:00,VALID,920.063,VALID,0,VALID,93.435,VALID,0,VALID,20.045,VALID,98,VALID,1.18843,
2004-02-08, 00:58:00,VALID,920.056,VALID,0,VALID,93.8075,VALID,0,VALID,20.0289,VALID,111,VALID,1.33789,
2004-02-08, 00:59:00,VALID,920.037,VALID,0,VALID,93.8342,VALID,-0.0169808,VALID,20.0028,VALID,117,VALID,1.27695,
2004-02-08, 01:00:00,VALID,920.037,VALID,0,VALID,93.9283,VALID,-0.0339617,VALID,19.9929,VALID,112,VALID,1.33003,
2004-02-08, 01:01:00,VALID,920.047,VALID,0,VALID,93.7389,VALID,-0.0339617,VALID,20.0192,VALID,126,VALID,1.96591,
2004-02-08, 01:02:00,VALID,920.05,VALID,0,VALID,93.627,VALID,0,VALID,20.0448,VALID,126,VALID,1.52437,
2004-02-08, 01:03:00,VALID,920.051,VALID,0,VALID,93.5227,VALID,0,VALID,20.0801,VALID,128,VALID,2.05945,
2004-02-08, 01:04:00,VALID,920.058,VALID,0,VALID,93.2353,VALID,-0.0339617,VALID,20.132,VALID,129,VALID,1.72228,
2004-02-08, 01:05:00,VALID,920.057,VALID,0,VALID,92.8487,VALID,-0.0509425,VALID,20.1578,VALID,125,VALID,1.28143,
2004-02-08, 01:06:00,VALID,920.04,VALID,0,VALID,92.8335,VALID,-0.0509425,VALID,20.1486,VALID,103,VALID,1.19993,
2004-02-08, 01:07:00,VALID,920.035,VALID,0,VALID,92.9912,VALID,-0.0339617,VALID,20.1325,VALID,97,VALID,1.21838,
2004-02-08, 01:08:00,VALID,920.013,VALID,0,VALID,93.0319,VALID,-0.0509425,VALID,20.1061,VALID,106,VALID,1.16606,
2004-02-08, 01:09:00,VALID,919.989,VALID,0,VALID,92.9657,VALID,-0.0169808,VALID,20.0738,VALID,105,VALID,1.51581,
2004-02-08, 01:10:00,VALID,919.968,VALID,0,VALID,93.1819,VALID,0,VALID,20.0321,VALID,78,VALID,1.15197,
2004-02-08, 01:11:00,VALID,919.95,VALID,0,VALID,93.5418,VALID,-0.0169808,VALID,19.9732,VALID,65,VALID,0.890625,
2004-02-08, 01:12:00,VALID,919.938,VALID,0,VALID,93.7948,VALID,0,VALID,19.9385,VALID,74,VALID,1.07885,
2004-02-08, 01:13:00,VALID,919.907,VALID,0,VALID,93.8991,VALID,-0.0339617,VALID,19.8798,VALID,76,VALID,0.99721,
2004-02-08, 01:14:00,VALID,919.897,VALID,0,VALID,94.1394,VALID,0.0169808,VALID,19.8607,VALID,86,VALID,1.14702,
2004-02-08, 01:15:00,VALID,919.883,VALID,0,VALID,94.2462,VALID,0.0169808,VALID,19.8545,VALID,98,VALID,1.3054,
2004-02-08, 01:16:00,VALID,919.879,VALID,0,VALID,94.2297,VALID,0,VALID,19.8408,VALID,92,VALID,1.23509,
2004-02-08, 01:17:00,VALID,919.854,VALID,0,VALID,94.0097,VALID,0,VALID,19.8863,VALID,114,VALID,1.93125,
2004-02-08, 01:18:00,VALID,919.847,VALID,0,VALID,93.2862,VALID,0,VALID,19.9864,VALID,114,VALID,1.36484,
2004-02-08, 01:19:00,VALID,919.832,VALID,0,VALID,92.8157,VALID,0,VALID,20.0768,VALID,113,VALID,1.20799,
2004-02-08, 01:20:00,VALID,919.824,VALID,0,VALID,92.5677,VALID,0,VALID,20.1317,VALID,114,VALID,1.34462,
2004-02-08, 01:21:00,VALID,919.805,VALID,0,VALID,92.4202,VALID,0.0169808,VALID,20.1578,VALID,104,VALID,1.49609,
2004-02-08, 01:22:00,VALID,919.791,VALID,0,VALID,92.302,VALID,0,VALID,20.1807,VALID,122,VALID,1.51926,
2004-02-08, 01:23:00,VALID,919.777,VALID,0,VALID,92.0934,VALID,0,VALID,20.1772,VALID,113,VALID,1.50923,
2004-02-08, 01:24:00,VALID,919.771,VALID,0,VALID,92.1227,VALID,0,VALID,20.1837,VALID,106,VALID,1.24691,
2004-02-08, 01:25:00,VALID,919.76,VALID,0,VALID,92.3427,VALID,0,VALID,20.1807,VALID,124,VALID,1.31901,
2004-02-08, 01:26:00,VALID,919.763,VALID,0,VALID,92.4202,VALID,0,VALID,20.1645,VALID,137,VALID,1.67134,
2004-02-08, 01:27:00,VALID,919.766,VALID,0,VALID,92.2918,VALID,-0.0169808,VALID,20.1936,VALID,143,VALID,1.54851,
2004-02-08, 01:28:00,VALID,919.772,VALID,0,VALID,92.0972,VALID,0,VALID,20.2324,VALID,136,VALID,1.38154,
2004-02-08, 01:29:00,VALID,919.758,VALID,0,VALID,91.8238,VALID,0,VALID,20.2577,VALID,124,VALID,1.27567,
2004-02-08, 01:30:00,VALID,919.741,VALID,0,VALID,91.7488,VALID,0.0339617,VALID,20.2614,VALID,96,VALID,1.15607,
2004-02-08, 01:31:00,VALID,919.717,VALID,0,VALID,92.0527,VALID,0,VALID,20.2351,VALID,135,VALID,1.18155,
2004-02-08, 01:32:00,VALID,919.713,VALID,0,VALID,92.1189,VALID,0.0169808,VALID,20.2227,VALID,133,VALID,1.72824,
2004-02-08, 01:33:00,VALID,919.713,VALID,0,VALID,92.0031,VALID,0,VALID,20.2525,VALID,125,VALID,1.32422,
2004-02-08, 01:34:00,VALID,919.728,VALID,0,VALID,92.0871,VALID,0,VALID,20.2256,VALID,138,VALID,1.18768,
2004-02-08, 01:35:00,VALID,919.715,VALID,0,VALID,92.1176,VALID,0,VALID,20.2353,VALID,139,VALID,1.51781,
2004-02-08, 01:36:00,VALID,919.722,VALID,0,VALID,92.054,VALID,0.0169808,VALID,20.2289,VALID,138,VALID,1.15551,
2004-02-08, 01:37:00,VALID,919.727,VALID,0,VALID,92.0158,VALID,0,VALID,20.2353,VALID,147,VALID,0.93378,
2004-02-08, 01:38:00,VALID,919.733,VALID,0,VALID,91.965,VALID,0,VALID,20.2157,VALID,126,VALID,1.09598,
2004-02-08, 01:39:00,VALID,919.75,VALID,0,VALID,91.9891,VALID,0,VALID,20.1901,VALID,107,VALID,1.39589,
2004-02-08, 01:40:00,VALID,919.749,VALID,0,VALID,92.3872,VALID,0,VALID,20.1414,VALID,113,VALID,1.27801,
2004-02-08, 01:41:00,VALID,919.738,VALID,0,VALID,92.583,VALID,0.0169808,VALID,20.1056,VALID,124,VALID,1.52628,
2004-02-08, 01:42:00,VALID,919.707,VALID,0,VALID,92.5652,VALID,0,VALID,20.1094,VALID,126,VALID,1.50911,
2004-02-08, 01:43:00,VALID,919.69,VALID,0,VALID,92.3986,VALID,0,VALID,20.132,VALID,124,VALID,1.46484,
2004-02-08, 01:44:00,VALID,919.678,VALID,0,VALID,92.1494,VALID,0,VALID,20.1643,VALID,123,VALID,1.05221,
2004-02-08, 01:45:00,VALID,919.678,VALID,0,VALID,91.8811,VALID,0.0169808,VALID,20.1834,VALID,127,VALID,1.21233,
2004-02-08, 01:46:00,VALID,919.662,VALID,0,VALID,91.7221,VALID,0.0169808,VALID,20.2125,VALID,126,VALID,1.40425,
2004-02-08, 01:47:00,VALID,919.656,VALID,0,VALID,91.6,VALID,0,VALID,20.2485,VALID,105,VALID,1.35592,
2004-02-08, 01:48:00,VALID,919.635,VALID,0,VALID,91.7717,VALID,0,VALID,20.2157,VALID,107,VALID,1.43306,
2004-02-08, 01:49:00,VALID,919.632,VALID,0,VALID,91.9688,VALID,0,VALID,20.1837,VALID,109,VALID,1.69804,
2004-02-08, 01:50:00,VALID,919.633,VALID,0,VALID,92.1417,VALID,0,VALID,20.1417,VALID,97,VALID,1.2555,
2004-02-08, 01:51:00,VALID,919.61,VALID,0,VALID,92.3185,VALID,0.0169808,VALID,20.1191,VALID,120,VALID,1.08166,
2004-02-08, 01:52:00,VALID,919.599,VALID,0,VALID,92.4329,VALID,-0.0169808,VALID,20.1191,VALID,134,VALID,1.18877,
2004-02-08, 01:53:00,VALID,919.608,VALID,0,VALID,92.4762,VALID,0,VALID,20.132,VALID,132,VALID,1.30142,
2004-02-08, 01:54:00,VALID,919.599,VALID,0,VALID,92.2994,VALID,0,VALID,20.1476,VALID,131,VALID,1.42073,
2004-02-08, 01:55:00,VALID,919.61,VALID,0,VALID,92.3147,VALID,0,VALID,20.174,VALID,137,VALID,1.47795,
2004-02-08, 01:56:00,VALID,919.616,VALID,0,VALID,92.1608,VALID,0.0339617,VALID,20.1933,VALID,131,VALID,1.53757,
2004-02-08, 01:57:00,VALID,919.615,VALID,0,VALID,92.246,VALID,0.0339617,VALID,20.1869,VALID,144,VALID,1.48624,
2004-02-08, 01:58:00,VALID,919.598,VALID,0,VALID,92.3846,VALID,0,VALID,20.1767,VALID,139,VALID,1.74237,
2004-02-08, 01:59:00,VALID,919.575,VALID,0,VALID,92.3274,VALID,0,VALID,20.1802,VALID,134,VALID,1.8041,
2004-02-08, 02:00:00,VALID,919.553,VALID,0,VALID,92.4113,VALID,0,VALID,20.1864,VALID,136,VALID,1.91443,
2004-02-08, 02:01:00,VALID,919.536,VALID,0,VALID,92.2727,VALID,0.0169808,VALID,20.2033,VALID,125,VALID,1.5426,
2004-02-08, 02:02:00,VALID,919.534,VALID,0,VALID,92.0934,VALID,0,VALID,20.2063,VALID,127,VALID,1.60921,
2004-02-08, 02:03:00,VALID,919.516,VALID,0,VALID,92.3083,VALID,-0.0169808,VALID,20.1804,VALID,124,VALID,1.93579,
2004-02-08, 02:04:00,VALID,919.496,VALID,0,VALID,92.3668,VALID,0.0169808,VALID,20.174,VALID,131,VALID,1.86985,
2004-02-08, 02:05:00,VALID,919.492,VALID,0,VALID,92.3566,VALID,0.0169808,VALID,20.2063,VALID,135,VALID,2.06669,
2004-02-08, 02:06:00,VALID,919.47,VALID,0,VALID,92.1977,VALID,-0.0169808,VALID,20.2187,VALID,131,VALID,1.97413,
2004-02-08, 02:07:00,VALID,919.452,VALID,0,VALID,92.0515,VALID,0,VALID,20.2512,VALID,128,VALID,1.80087,
2004-02-08, 02:08:00,VALID,919.433,VALID,0,VALID,92.0832,VALID,0,VALID,20.2577,VALID,134,VALID,1.69847,
2004-02-08, 02:09:00,VALID,919.422,VALID,0,VALID,91.9192,VALID,0,VALID,20.2838,VALID,152,VALID,1.98157,
2004-02-08, 02:10:00,VALID,919.421,VALID,0,VALID,91.4551,VALID,0,VALID,20.3347,VALID,120,VALID,1.59699,
2004-02-08, 02:11:00,VALID,919.424,VALID,0,VALID,91.5695,VALID,0,VALID,20.3352,VALID,124,VALID,1.86623,
2004-02-08, 02:12:00,VALID,919.422,VALID,0,VALID,91.8111,VALID,-0.0169808,VALID,20.2992,VALID,125,VALID,1.90916,
2004-02-08, 02:13:00,VALID,919.427,VALID,0,VALID,91.8849,VALID,0,VALID,20.2669,VALID,113,VALID,1.36012,
2004-02-08, 02:14:00,VALID,919.433,VALID,0,VALID,92.0654,VALID,-0.0679233,VALID,20.2301,VALID,106,VALID,1.17245,
2004-02-08, 02:15:00,VALID,919.438,VALID,0,VALID,92.4482,VALID,-0.0679233,VALID,20.1949,VALID,118,VALID,1.43025,
2004-02-08, 02:16:00,VALID,919.449,VALID,0,VALID,92.5537,VALID,-0.0849042,VALID,20.1623,VALID,123,VALID,1.19922,
2004-02-08, 02:17:00,VALID,919.443,VALID,0,VALID,92.7407,VALID,-0.101885,VALID,20.1434,VALID,129,VALID,1.28234,
2004-02-08, 02:18:00,VALID,919.428,VALID,0,VALID,92.8577,VALID,-0.0849042,VALID,20.1397,VALID,125,VALID,1.43415,
2004-02-08, 02:19:00,VALID,919.418,VALID,0,VALID,92.8093,VALID,-0.101885,VALID,20.1623,VALID,135,VALID,1.99144,
2004-02-08, 02:20:00,VALID,919.421,VALID,0,VALID,92.4927,VALID,-0.101885,VALID,20.1981,VALID,127,VALID,1.61683,
2004-02-08, 02:21:00,VALID,919.41,VALID,0,VALID,92.5639,VALID,-0.101885,VALID,20.1852,VALID,125,VALID,1.50985,
2004-02-08, 02:22:00,VALID,919.411,VALID,0,VALID,92.6631,VALID,-0.0509425,VALID,20.1588,VALID,125,VALID,1.52486,
2004-02-08, 02:23:00,VALID,919.412,VALID,0,VALID,92.8678,VALID,-0.0849042,VALID,20.1338,VALID,114,VALID,1.54097,
2004-02-08, 02:24:00,VALID,919.41,VALID,0,VALID,93.0891,VALID,-0.101885,VALID,20.0977,VALID,121,VALID,1.6968,
2004-02-08, 02:25:00,VALID,919.4,VALID,0,VALID,93.159,VALID,-0.0849042,VALID,20.0622,VALID,111,VALID,1.41202,
2004-02-08, 02:26:00,VALID,919.394,VALID,0,VALID,93.4273,VALID,-0.0509425,VALID,20.01,VALID,116,VALID,1.24314,
2004-02-08, 02:27:00,VALID,919.379,VALID,0,VALID,93.6448,VALID,-0.0679233,VALID,19.9653,VALID,115,VALID,1.56194,
2004-02-08, 02:28:00,VALID,919.374,VALID,0,VALID,93.8889,VALID,-0.0679233,VALID,19.9492,VALID,126,VALID,1.89444,
2004-02-08, 02:29:00,VALID,919.361,VALID,0,VALID,93.5761,VALID,-0.0849042,VALID,19.9747,VALID,118,VALID,2.08434,
2004-02-08, 02:30:00,VALID,919.365,VALID,0,VALID,93.2557,VALID,-0.101885,VALID,20.0364,VALID,105,VALID,1.77108,
2004-02-08, 02:31:00,VALID,919.361,VALID,0,VALID,93.1094,VALID,-0.0849042,VALID,20.0622,VALID,118,VALID,1.60309,
2004-02-08, 02:32:00,VALID,919.362,VALID,0,VALID,93.0471,VALID,-0.0679233,VALID,20.0716,VALID,118,VALID,1.5451,
2004-02-08, 02:33:00,VALID,919.361,VALID,0,VALID,93.0853,VALID,-0.101885,VALID,20.0719,VALID,98,VALID,1.30711,
2004-02-08, 02:34:00,VALID,919.368,VALID,0,VALID,93.0827,VALID,-0.0509425,VALID,20.046,VALID,76,VALID,0.886186,
2004-02-08, 02:35:00,VALID,919.368,VALID,0,VALID,93.3256,VALID,-0.101885,VALID,20.0105,VALID,112,VALID,1.02751,
2004-02-08, 02:36:00,VALID,919.367,VALID,0,VALID,93.4718,VALID,-0.101885,VALID,19.9973,VALID,113,VALID,1.31094,
2004-02-08, 02:37:00,VALID,919.345,VALID,0,VALID,93.3498,VALID,-0.101885,VALID,20.007,VALID,110,VALID,1.23578,
2004-02-08, 02:38:00,VALID,919.355,VALID,0,VALID,93.2646,VALID,-0.101885,VALID,20.01,VALID,126,VALID,1.38885,
2004-02-08, 02:39:00,VALID,919.358,VALID,0,VALID,92.9556,VALID,-0.0509425,VALID,20.0522,VALID,117,VALID,1.34316,
2004-02-08, 02:40:00,VALID,919.361,VALID,0,VALID,92.8945,VALID,-0.0339617,VALID,20.0721,VALID,110,VALID,1.46875,
2004-02-08, 02:41:00,VALID,919.366,VALID,0,VALID,93.0319,VALID,-0.0679233,VALID,20.0781,VALID,120,VALID,1.23454,
2004-02-08, 02:42:00,VALID,919.371,VALID,0,VALID,92.7368,VALID,-0.0849042,VALID,20.094,VALID,102,VALID,1.2416,
2004-02-08, 02:43:00,VALID,919.373,VALID,0,VALID,92.686,VALID,-0.0679233,VALID,20.1039,VALID,108,VALID,1.19717,
2004-02-08, 02:44:01,VALID,919.374,VALID,0,VALID,92.8475,VALID,0.0169808,VALID,20.128,VALID,116,VALID,1.38542,
2004-02-08, 02:45:00,VALID,919.378,VALID,0,VALID,92.7051,VALID,0.0169808,VALID,20.1379,VALID,83,VALID,1.10434,
2004-02-08, 02:46:00,VALID,919.36,VALID,0,VALID,92.6529,VALID,0,VALID,20.1061,VALID,72,VALID,1.15278,
2004-02-08, 02:47:00,VALID,919.353,VALID,0,VALID,93.0255,VALID,0.0169808,VALID,20.0801,VALID,79,VALID,1.15067,
2004-02-08, 02:48:01,VALID,919.35,VALID,0,VALID,93.1425,VALID,0.0169808,VALID,20.0674,VALID,85,VALID,1.34766,
2004-02-08, 02:49:00,VALID,919.311,VALID,0,VALID,93.3116,VALID,0.0509425,VALID,20.0602,VALID,91,VALID,1.49663,
2004-02-08, 02:50:00,VALID,919.307,VALID,0,VALID,92.9441,VALID,0.0169808,VALID,20.1153,VALID,104,VALID,1.46675,
2004-02-08, 02:51:00,VALID,919.272,VALID,0,VALID,92.7318,VALID,0,VALID,20.1576,VALID,101,VALID,1.19978,
2004-02-08, 02:52:00,VALID,919.252,VALID,0,VALID,92.7445,VALID,0,VALID,20.1638,VALID,105,VALID,1.09255,
2004-02-08, 02:53:00,VALID,919.236,VALID,0,VALID,92.7216,VALID,0.0679233,VALID,20.1705,VALID,101,VALID,1.12285,
2004-02-08, 02:54:00,VALID,919.207,VALID,0,VALID,92.8475,VALID,0.0509425,VALID,20.1347,VALID,117,VALID,1.15137,
2004-02-08, 02:55:01,VALID,919.179,VALID,0,VALID,93.0064,VALID,0.0169808,VALID,20.0922,VALID,116,VALID,1.0665,
2004-02-08, 02:56:00,VALID,919.152,VALID,0,VALID,93.1527,VALID,0.0169808,VALID,20.0599,VALID,105,VALID,1.43021,
2004-02-08, 02:57:00,VALID,919.147,VALID,0,VALID,93.351,VALID,0.0509425,VALID,20.0478,VALID,121,VALID,1.39524,
2004-02-08, 02:58:00,VALID,919.138,VALID,0,VALID,93.3218,VALID,0.0339617,VALID,20.0607,VALID,129,VALID,1.58315,
2004-02-08, 02:59:00,VALID,919.151,VALID,0,VALID,93.3078,VALID,0,VALID,20.0609,VALID,133,VALID,1.43086,
2004-02-08, 03:00:00,VALID,919.159,VALID,0,VALID,93.0293,VALID,0,VALID,20.0706,VALID,120,VALID,1.13225,
2004-02-08, 03:01:00,VALID,919.164,VALID,0,VALID,93.2035,VALID,0.0169808,VALID,20.054,VALID,132,VALID,1.49336,
2004-02-08, 03:02:00,VALID,919.17,VALID,0,VALID,93.2315,VALID,0.0169808,VALID,20.0706,VALID,138,VALID,1.55573,
2004-02-08, 03:03:01,VALID,919.174,VALID,0,VALID,93.0217,VALID,0.0339617,VALID,20.0935,VALID,124,VALID,1.44661,
2004-02-08, 03:04:00,VALID,919.163,VALID,0,VALID,92.9772,VALID,0.0679233,VALID,20.1029,VALID,121,VALID,1.17869,
2004-02-08, 03:05:00,VALID,919.151,VALID,0,VALID,93.1399,VALID,0.0509425,VALID,20.0728,VALID,130,VALID,1.24907,
2004-02-08, 03:06:00,VALID,919.129,VALID,0,VALID,93.1845,VALID,0,VALID,20.0701,VALID,128,VALID,1.38021,
2004-02-08, 03:07:01,VALID,919.107,VALID,0,VALID,93.0547,VALID,0.0169808,VALID,20.0833,VALID,122,VALID,1.4269,
2004-02-08, 03:08:00,VALID,919.093,VALID,0,VALID,92.9009,VALID,0.0169808,VALID,20.093,VALID,118,VALID,1.26677,
2004-02-08, 03:09:00,VALID,919.084,VALID,0,VALID,92.9581,VALID,0.0169808,VALID,20.083,VALID,124,VALID,1.23047,
2004-02-08, 03:10:00,VALID,919.065,VALID,0,VALID,93.0153,VALID,0,VALID,20.0801,VALID,122,VALID,1.4974,
2004-02-08, 03:11:01,VALID,919.045,VALID,0,VALID,92.9314,VALID,0.0169808,VALID,20.0793,VALID,131,VALID,1.39156,
2004-02-08, 03:12:00,VALID,919.034,VALID,0,VALID,92.7864,VALID,0.0679233,VALID,20.1156,VALID,136,VALID,1.32122,
2004-02-08, 03:13:00,VALID,919.039,VALID,0,VALID,92.6364,VALID,0.0339617,VALID,20.1253,VALID,133,VALID,1.11736,
2004-02-08, 03:14:00,VALID,919.031,VALID,0,VALID,92.5487,VALID,0,VALID,20.1101,VALID,128,VALID,0.830433,
2004-02-08, 03:15:00,VALID,919.04,VALID,0,VALID,92.616,VALID,-0.0509425,VALID,20.0947,VALID,128,VALID,0.99814,
2004-02-08, 03:16:00,VALID,919.075,VALID,0,VALID,92.7152,VALID,-0.0509425,VALID,20.0719,VALID,131,VALID,1.15282,
2004-02-08, 03:17:00,VALID,919.087,VALID,0,VALID,92.8627,VALID,-0.0339617,VALID,20.0592,VALID,128,VALID,1.02344,
2004-02-08, 03:18:00,VALID,919.123,VALID,0,VALID,93.009,VALID,-0.0509425,VALID,20.0194,VALID,139,VALID,1.20385,
2004-02-08, 03:19:00,VALID,919.143,VALID,0,VALID,93.1527,VALID,-0.0339617,VALID,20.0267,VALID,147,VALID,1.2843,
2004-02-08, 03:20:00,VALID,919.153,VALID,0,VALID,92.9072,VALID,-0.0679233,VALID,20.0423,VALID,135,VALID,0.849201,
2004-02-08, 03:21:00,VALID,919.159,VALID,0,VALID,92.7051,VALID,-0.101885,VALID,20.088,VALID,137,VALID,0.984375,
2004-02-08, 03:22:00,VALID,919.177,VALID,0,VALID,92.452,VALID,-0.0679233,VALID,20.1238,VALID,126,VALID,0.919085,
2004-02-08, 03:23:01,VALID,919.164,VALID,0,VALID,92.1901,VALID,-0.0509425,VALID,20.1203,VALID,120,VALID,0.785511,
2004-02-08, 03:24:00,VALID,919.176,VALID,0,VALID,92.363,VALID,-0.0169808,VALID,20.0945,VALID,76,VALID,1.09549,
2004-02-08, 03:25:00,VALID,919.184,VALID,0,VALID,92.775,VALID,-0.0679233,VALID,20.0587,VALID,100,VALID,1.12322,
2004-02-08, 03:26:01,VALID,919.177,VALID,0,VALID,92.967,VALID,0,VALID,20.0108,VALID,115,VALID,1.03252,
2004-02-08, 03:27:00,VALID,919.176,VALID,0,VALID,93.1209,VALID,-0.0509425,VALID,19.9747,VALID,113,VALID,1.31019,
2004-02-08, 03:28:01,VALID,919.192,VALID,0,VALID,93.2569,VALID,-0.0679233,VALID,19.9564,VALID,102,VALID,1.05278,
2004-02-08, 03:29:00,VALID,919.181,VALID,0,VALID,93.3739,VALID,0.0679233,VALID,19.9509,VALID,121,VALID,1.11985,
2004-02-08, 03:30:00,VALID,919.189,VALID,0,VALID,93.1552,VALID,0.0509425,VALID,19.9608,VALID,131,VALID,0.958984,
2004-02-08, 03:31:00,VALID,919.179,VALID,0,VALID,92.9543,VALID,0.0169808,VALID,19.9474,VALID,127,VALID,0.886991,
2004-02-08, 03:32:00,VALID,919.197,VALID,0,VALID,93.0319,VALID,0.0339617,VALID,19.967,VALID,133,VALID,1.46894,
2004-02-08, 03:33:00,VALID,919.221,VALID,0,VALID,92.7305,VALID,0.0849042,VALID,19.9991,VALID,110,VALID,1.17533,
2004-02-08, 03:34:01,VALID,919.243,VALID,0,VALID,92.7051,VALID,0.101885,VALID,20.0058,VALID,99,VALID,0.894354,
2004-02-08, 03:35:01,VALID,919.255,VALID,0,VALID,93.0827,VALID,0.0509425,VALID,19.9663,VALID,111,VALID,1.25982,
2004-02-08, 03:36:00,VALID,919.229,VALID,0,VALID,92.9607,VALID,0.0339617,VALID,19.9993,VALID,117,VALID,1.32431,
2004-02-08, 03:37:00,VALID,919.208,VALID,0,VALID,92.6822,VALID,0.0169808,VALID,20.0381,VALID,107,VALID,1.18555,